View from above orbital plane
|
View from above satellite
|
Ground track
|
The orbit data is extracted from the following two-line orbital elements,
1 12848U 81094A 21104.55947970 .00000884 00000-0 52252-4 0 9999
2 12848 82.4820 156.4859 0588744 269.2276 84.1450 14.25793459988496
Epoch (UTC): | 14 April 2021 13:25:39 |
Eccentricity: | 0.0588744 |
inclination: | 82.4820° |
perigee height: | 383 km |
apogee height: | 1229 km |
right ascension of ascending node: | 156.4859° |
argument of perigee: | 269.2276° |
revolutions per day: | 14.25793459 |
mean anomaly at epoch: | 84.1450° |
orbit number at epoch: | 98849 |
The dashed part of the orbit path shows where the satellite is in the earth's shadow,
|
|